Flag for U.S.A. Weather past 2 weeks in Colorado Springs, Colorado, U.S.A.

50 °F

Passing clouds.

Feels Like: 49 °F
Forecast: 47 / 79 °F
Wind: 3 mph from Northwest

Location: City Of Colorado Springs Municipal Airport

Current Time: Oct 10, 2015 at 6:01:38 AM

Latest Report: Oct 10, 2015 at 4:54 AM

Visibility: 10 mi

Pressure: 30.13 "Hg (24.15 "Hg at 1831m altitude)

Humidity: 74%

Dew point: 42 °F

Location of Colorado SpringsLocation

Historic Weather in Colorado Springs — Graph


Colorado Springs temperature yesterday

Maximum temperature yesterday: 68 °F (at 2:54 AM)
Minimum temperature yesterday: 49 °F (at 11:54 PM)
Average temperature yesterday: 61 °F

Past Weeks' High & Low Weather Summary

High87 °F (Sep 27, 2:54 PM)100% (Oct 2, 12:54 AM)30.32 "Hg (Oct 2, 12:54 AM)
Low44 °F (Oct 5, 6:54 AM)10% (Sep 27, 12:54 PM)29.65 "Hg (Oct 3, 3:54 PM)
Average60 °F64%30.03 "Hg
* Reported Sep 25 4:54 AM — Oct 10 4:54 AM, Colorado Springs, Weather by CustomWeather, © 2015

Note: Actual official high and low records may vary slightly from our data, if they occured in-between our weather recording intervals... More about our weather records


Colorado Springs weather history for previous 24 hours

Time TempWeatherWind HumidityBarometerVisibility
4:54 AM
Sat, Oct 10
50 °FPassing clouds.3 mph74%30.13 "Hg10 mi
3:54 AM50 °FPassing clouds.7 mph77%30.13 "Hg10 mi
2:54 AM49 °FClear.7 mph80%30.14 "Hg10 mi
1:54 AM48 °FClear.7 mph83%30.18 "Hg10 mi
12:54 AM48 °FClear.6 mph83%30.19 "Hg10 mi
11:54 PM
Fri, Oct 9
49 °FClear.9 mph80%30.20 "Hg10 mi
10:54 PM56 °FPassing clouds.No wind65%30.20 "Hg10 mi
9:54 PM56 °FPassing clouds.3 mph65%30.18 "Hg10 mi
8:54 PM58 °FPassing clouds.6 mph60%30.21 "Hg10 mi
7:54 PM59 °FPassing clouds.9 mph58%30.19 "Hg10 mi
6:54 PM61 °FPartly sunny.8 mph52%30.13 "Hg10 mi
5:54 PM64 °FPartly sunny.10 mph47%30.11 "Hg10 mi
4:54 PM67 °FPartly sunny.14 mph41%30.09 "Hg10 mi
3:54 PM68 °FPartly sunny.17 mph39%30.09 "Hg10 mi
2:54 PM67 °FPartly sunny.14 mph41%30.10 "Hg10 mi
1:54 PM64 °FPartly sunny.13 mph43%30.20 "Hg10 mi
12:54 PM64 °FPartly sunny.12 mph43%30.23 "Hg10 mi
11:54 AM61 °FPartly sunny.9 mph50%30.27 "Hg10 mi
10:54 AM58 °FPartly sunny.10 mph56%30.32 "Hg10 mi
9:54 AM62 °FScattered clouds.15 mph48%30.30 "Hg10 mi
8:54 AM57 °FScattered clouds.10 mph58%30.32 "Hg10 mi
7:54 AM54 °FPassing clouds.10 mph64%30.31 "Hg10 mi
6:54 AM65 °FPartly cloudy.8 mph44%30.25 "Hg10 mi
Weather by CustomWeather, © 2015

See weather overviewHow to use our weather pages